DMSP 5D-2 F13 DEB, 42323

Orbit data source: Space-Track

DMSP 5D-2 F13 DEB, 42323 is space debris in SSO originally from a launch on Fri, 24 Mar 1995 UTC launched from the Air Force Western Test Range (AFWTR). Debris objects in space refer to the collection of defunct objects orbiting the Earth. Examples of debris include non-operational satellites, rocket bodies, and fragments generated from explosions, collisions, or faulty payload assembly.

Loading next visibility...
Identifier
42323, 1995-015JR
Orbit
SSO
Country
Flag of USUS
Related business
Manufacturer
Unknown
Mission
Spacecraft
Bus & Motor
Unknown
Mass
Unknown
Launch date (UTC)
1995-03-24 (31 years ago)
Launch vehicle
Unknown
Launch site
Air Force Western Test Range (AFWTR)
Object type
Payload
Rocket body
Debris
Shape & HBR
Unknown shape, 0.1 m
Radar Cross Section
Small (<0.1 m²)

Expand to show TLE details & history
Last TLE update: 3 days ago

TLE from 3 days ago
0 DMSP 5D-2 F13 DEB
1 42323U 95015JR  25344.26199656  .00000681  00000-0  35768-3 0  9993
2 42323  98.8303 356.0910 0002554 183.4430 176.6728 14.17456268525924
Epoch: 2025-12-10T06:17Z
TLE epoch observation values (Epoch: 2025-12-10T06:17:16.502Z)
Latitude
0.00001°
Longitude
-177.46261°
Altitude
838.715 km
Speed
7.433 km/s
True Right ascension
23h 44m 21s
True Declination
0° 00' 00"
Sunlit
Object was in daylight at epoch
Visualization orbit readout
Latitude
Unknown
Longitude
Unknown
Altitude
Unknown
Speed
Unknown
Apparent Right ascension
Unknown
Apparent Declination
Unknown
Sunlit
N/A
Visualization observer readout
Local Sidereal Time
10:29:51
Azimuth
Unknown
Elevation
Unknown
Doppler factor
Unknown
Orbital elements
Apogee altitude
832.977 km
Perigee altitude
829.295 km
Semi-major axis
7,209.273 km
Eccentricity
0.00026
Inclination
98.8303°
RAAN
356.091°
Arg. of periapsis
183.443°
True anomaly
176.6745°
Mean anomaly
176.6728°
Eccentric anomaly
176.67365°
Mean motion
3.54573 °/min
Orbital period
101.53 mins
BSTAR
0.00035768
Loading maneuver chart data...
Computing Atmospheric mass density...

Documentation

Showing up to 5 results
|